Regional Weather Roundup
Issued by NWS

Home | Current Version | Previous Version | Graphics & Text | Print | Product List | Glossary Off
Versions: 1 2 3 4 5 6 7 8 9 10 11 12 13 14 15 16 17 18 19 20 21 22 23 24 25 26 27 28 29 30 31 32 33 34 35 36 37 38 39 40 41 42 43 44 45 46 47 48 49 50

000
ASUS43 KTOP 281859
RWRKS

WEATHER ROUNDUP FOR KANSAS
NATIONAL WEATHER SERVICE GOODLAND KS
200 PM CDT SUN MAY 28 2017

NOTE:  "FAIR" INDICATES FEW OR NO CLOUDS BELOW 12,000 FEET WITH NO
SIGNIFICANT WEATHER AND/OR OBSTRUCTIONS TO VISIBILITY.

KSZ001>006-013>018-027>032-041>047-282000-
NORTHWEST KANSAS

CITY           SKY/WX    TMP DP  RH WIND       PRES   REMARKS
GOODLAND       MOSUNNY   71  43  36 N9        30.16F
HAYS           SUNNY     77  48  35 N13       30.08F
HILL CITY      SUNNY     79  41  25 N13       30.09F
RUSSELL        SUNNY     77  48  35 NW12      30.05F
$$

KSZ061>065-074>080-084>089-282000-
SOUTHWEST KANSAS

CITY           SKY/WX    TMP DP  RH WIND       PRES   REMARKS
DODGE CITY     MOSUNNY   77  41  27 NW13G20   30.12F
ELKHART          N/A     71  37  28 MISG        N/A
GARDEN CITY    MOSUNNY   78  40  25 MISG      30.14F
GREAT BEND     PTSUNNY   76  50  40 NW9G17    30.07F
LIBERAL        MOSUNNY   75  42  30 NW8       30.17F
$$

KSZ066>073-081>083-090>101-282000-
SOUTHEAST KANSAS

CITY           SKY/WX    TMP DP  RH WIND       PRES   REMARKS
CHANUTE        MOSUNNY   80  51  36 NW8       30.01F
COFFEYVILLE    MOSUNNY   80  59  48 W13       30.01F
HUTCHINSON     SUNNY     80  45  28 VRB7G18   30.05F
MEDICINE LODGE   N/A     81  44  27 VRB7      30.07F
NEWTON         SUNNY     80  47  31 NW14G20   30.04F
PARSONS        MOSUNNY   81  54  39 NW6       30.03S
WICHITA INTL   MOSUNNY   79  48  33 NW6       30.04F
WICHITA JABRA  SUNNY     80  47  31 NW14G20   30.04F
WINFIELD       SUNNY     80  51  36 N8        30.05F
$$

KSZ007>012-019>026-033>040-048>060-102>105-282000-
NORTHEAST KANSAS

CITY           SKY/WX    TMP DP  RH WIND       PRES   REMARKS
CONCORDIA      SUNNY     77  48  35 NW15G21   30.01F
EMPORIA        SUNNY     78  51  38 W15G23    30.00F
LAWRENCE       SUNNY     80  53  39 W10       29.96F
MANHATTAN      SUNNY     79  54  41 W7G20     29.99F
OLATHE IND     SUNNY     78  52  40 W10G21    29.97F
OLATHE EXE     SUNNY     77  51  40 NW8G18    29.96F
SALINA         SUNNY     82  48  30 NW15G21   30.03F
TOPEKA BILLARD SUNNY     80  55  42 W15G22    29.96F
TOPEKA FORBES  SUNNY     81  52  36 W13G21    29.97F
$$




USA.gov is the U.S. government's official web portal to all federal, state and local government web resources and services.